• Join FlightAware (Why Join?)
  • Login
  • US Flag 
06:55AM EST


 

Airport Tracker/Info


-or-


 

Live Flight TrackerFlight Track Log ✈ XOJ549 ✈ 10-May-2013 ✈ KBKL - KMSY

Flight Track Log - Related Links

Times and Time Zones

All times are in EDT time to prevent confusion due to time zone crossing. See the XOJ549 flight status page for this flight to view local times or setup timezone preferences in your user account.

Time Position Orientation Groundspeed Altitude Reporting Facility
EDT Latitude Longitude Course Direction KTS MPH feet Rate Location/Type
10:10PM 41.5125 -81.6978 295° West 165 190 1,200  Level Cleveland Center
10:11PM 41.5308 -81.7508 295° West 237 273 2,000 874 Climbing Cleveland Center
10:12PM 41.5681 -81.7906 321° Northwest 215 247 2,700 1,071 Climbing Cleveland Center
10:12PM 41.5531 -81.8233 239° Southwest 210 242 3,500 1,685 Climbing Cleveland Center
10:13PM 41.5397 -81.9036 258° West 246 283 5,200 2,600 Climbing Cleveland Center
10:14PM 41.4969 -81.9747 231° Southwest 241 277 8,700 3,400 Climbing Cleveland Center
10:15PM 41.4522 -82.0514 232° Southwest 263 303 12,000 2,050 Climbing Cleveland Center
10:16PM 41.4053 -82.1389 234° Southwest 283 326 12,800 2,350 Climbing Cleveland Center
10:17PM 41.3497 -82.2372 233° Southwest 314 361 16,700 3,650 Climbing Cleveland Center
10:18PM 41.2942 -82.3325 232° Southwest 328 377 20,100 3,300 Climbing Cleveland Center
10:19PM 41.2342 -82.4358 232° Southwest 347 399 23,300 3,200 Climbing Cleveland Center
10:20PM 41.1739 -82.5389 232° Southwest 353 406 26,500 3,000 Climbing Cleveland Center
10:21PM 41.1139 -82.6447 233° Southwest 363 418 29,300 2,200 Climbing Cleveland Center
10:22PM 41.0556 -82.7447 232° Southwest 368 423 30,900 1,750 Climbing Cleveland Center
10:23PM 40.9886 -82.8608 233° Southwest 384 442 32,800 2,250 Climbing Cleveland Center
10:25PM 40.8914 -83.0275 232° Southwest 391 450 36,600 2,275 Climbing Indianapolis Center
10:26PM 40.8153 -83.1564 232° Southwest 379 436 38,600 1,672 Climbing Indianapolis Center
10:27PM 40.7550 -83.2586 232° Southwest 386 444 40,000 1,475 Climbing Indianapolis Center
10:28PM 40.6906 -83.3683 232° Southwest 378 435 41,600 1,279 Climbing Indianapolis Center
10:29PM 40.6267 -83.4756 232° Southwest 371 427 42,600 934 Climbing Indianapolis Center
10:30PM 40.5558 -83.5767 227° Southwest 373 429 43,500 738 Climbing Indianapolis Center
10:31PM 40.4633 -83.6450 209° Southwest 380 437 44,100 590 Climbing Indianapolis Center
10:32PM 40.3683 -83.7117 208° Southwest 383 441 44,700 443 Climbing Indianapolis Center
10:33PM 40.2736 -83.7797 209° Southwest 387 445 45,000 148 Climbing Indianapolis Center
10:34PM 40.1592 -83.8625 209° Southwest 399 459 45,000  Level Indianapolis Center
10:35PM 40.0575 -83.9358 209° Southwest 414 476 45,000  Level Indianapolis Center
10:36PM 39.9544 -84.0089 209° Southwest 419 482 45,000  Level Indianapolis Center
10:37PM 39.8506 -84.0831 209° Southwest 424 488 45,000  Level Indianapolis Center
10:38PM 39.7467 -84.1561 208° Southwest 423 487 45,000  Level Indianapolis Center
10:39PM 39.6425 -84.2289 208° Southwest 423 487 45,000  Level Indianapolis Center
10:40PM 39.5383 -84.3017 208° Southwest 423 487 45,000  Level Indianapolis Center
10:41PM 39.4342 -84.3731 208° Southwest 421 484 45,000  Level Indianapolis Center
10:42PM 39.3300 -84.4469 209° Southwest 423 487 45,000  Level Indianapolis Center
10:43PM 39.2258 -84.5200 209° Southwest 423 487 45,000  Level Indianapolis Center
10:44PM 39.1203 -84.5933 208° Southwest 426 490 45,000  Level Indianapolis Center
10:45PM 39.0144 -84.6644 208° Southwest 426 490 45,000  Level Indianapolis Center
10:46PM 38.9083 -84.7378 208° Southwest 427 491 45,000  Level Indianapolis Center
10:47PM 38.8072 -84.8061 208° Southwest 425 489 45,000  Level Indianapolis Center
10:48PM 38.7017 -84.8781 208° Southwest 428 493 45,000  Level Indianapolis Center
10:49PM 38.5803 -84.9611 208° Southwest 422 486 45,000  Level Indianapolis Center
10:50PM 38.4756 -85.0319 208° Southwest 424 488 45,000  Level Indianapolis Center
10:51PM 38.3706 -85.1031 208° Southwest 425 489 45,000  Level Indianapolis Center
10:52PM 38.2658 -85.1739 208° Southwest 425 489 45,000  Level Indianapolis Center
10:53PM 38.1728 -85.2347 207° Southwest 423 487 45,000  Level Indianapolis Center
10:54PM 38.0664 -85.3056 208° Southwest 424 488 45,000  Level Indianapolis Center
10:55PM 37.9403 -85.3897 208° Southwest 424 488 45,000  Level Indianapolis Center
10:56PM 37.8331 -85.4600 207° Southwest 429 494 45,000  Level Indianapolis Center
10:57PM 37.7275 -85.5303 208° Southwest 428 493 45,000  Level Indianapolis Center
10:58PM 37.6178 -85.6031 208° Southwest 437 503 45,000  Level Indianapolis Center
10:59PM 37.5081 -85.6747 207° Southwest 440 506 45,000  Level Indianapolis Center
11:00PM 37.4003 -85.7453 207° Southwest 435 501 45,000  Level Indianapolis Center
11:01PM 37.3089 -85.8092 209° Southwest 439 505 45,000  Level Memphis Center
11:02PM 37.2133 -85.8694 207° Southwest 436 502 45,000  Level Memphis Center
11:03PM 37.1033 -85.9406 207° Southwest 436 502 45,000  Level Memphis Center
11:04PM 36.9972 -86.0086 207° Southwest 436 502 45,000  Level Memphis Center
11:05PM 36.8831 -86.0825 207° Southwest 429 494 45,000  Level Memphis Center
11:06PM 36.7792 -86.1475 207° Southwest 429 494 45,000  Level Memphis Center
11:07PM 36.6750 -86.2125 207° Southwest 422 486 45,000  Level Memphis Center
11:08PM 36.5731 -86.2797 208° Southwest 422 486 45,000  Level Memphis Center
11:09PM 36.4689 -86.3444 207° Southwest 422 486 45,000  Level Memphis Center
11:10PM 36.3667 -86.4061 206° Southwest 422 486 45,000  Level Memphis Center
11:11PM 36.2625 -86.4731 207° Southwest 422 486 45,000  Level Memphis Center
11:12PM 36.1703 -86.5314 207° Southwest 422 486 45,000  Level Memphis Center
11:13PM 36.0703 -86.5950 207° Southwest 422 486 45,000  Level Memphis Center
11:14PM 35.9681 -86.6614 208° Southwest 422 486 45,000  Level Memphis Center
11:15PM 35.8553 -86.7331 207° Southwest 422 486 45,000  Level Memphis Center
11:16PM 35.7489 -86.7964 206° Southwest 417 480 45,000  Level Memphis Center
11:17PM 35.6464 -86.8622 208° Southwest 423 487 45,000  Level Memphis Center
11:18PM 35.5419 -86.9278 207° Southwest 423 487 45,000  Level Memphis Center
11:19PM 35.4372 -86.9908 206° Southwest 423 487 45,000  Level Memphis Center
11:20PM 35.3367 -87.0558 208° Southwest 423 487 45,000  Level Memphis Center
11:21PM 35.2300 -87.1186 206° Southwest 418 481 45,000  Level Memphis Center
11:22PM 35.1233 -87.1861 207° Southwest 418 481 45,000  Level Memphis Center
11:23PM 35.0225 -87.2458 206° Southwest 434 499 45,000  Level Memphis Center
11:24PM 34.9136 -87.3131 207° Southwest 439 505 45,000  Level Memphis Center
11:25PM 34.8047 -87.3778 206° Southwest 439 505 45,000  Level Memphis Center
11:26PM 34.6975 -87.4422 206° Southwest 439 505 45,000  Level Memphis Center
11:27PM 34.5803 -87.5142 207° Southwest 433 498 45,000  Level Memphis Center
11:28PM 34.4711 -87.5758 205° Southwest 432 497 45,000  Level Memphis Center
11:29PM 34.3619 -87.6422 207° Southwest 437 503 45,000  Level Memphis Center
11:30PM 34.2550 -87.7061 206° Southwest 437 503 45,000  Level Memphis Center
11:31PM 34.1600 -87.7617 206° Southwest 437 503 45,000  Level Memphis Center
11:32PM 34.0550 -87.8225 206° Southwest 426 490 45,000  Level Memphis Center
11:33PM 33.9519 -87.8856 207° Southwest 419 482 45,000  Level Memphis Center
11:34PM 33.8467 -87.9486 206° Southwest 419 482 45,000  Level Memphis Center
11:35PM 33.7414 -88.0142 207° Southwest 424 488 45,000  Level Memphis Center
11:36PM 33.6383 -88.0767 207° Southwest 424 488 45,000  Level Memphis Center
11:37PM 33.5372 -88.1367 206° Southwest 419 482 45,000 -450 Level Memphis Center
11:38PM 33.4381 -88.1939 206° Southwest 414 476 44,100 -1,150 Descending Memphis Center
11:39PM 33.3389 -88.2536 207° Southwest 384 442 42,700 -1,250 Descending Memphis Center
11:40PM 33.2436 -88.3081 206° Southwest 384 442 41,600 -1,050 Descending Memphis Center
11:41PM 33.1486 -88.3625 206° Southwest 384 442 40,600 -1,000 Descending Memphis Center
11:42PM 33.0533 -88.4192 206° Southwest 384 442 39,600 -1,000 Descending Memphis Center
11:43PM 32.9603 -88.4731 206° Southwest 379 436 38,600 -800 Descending Memphis Center
11:44PM 32.8692 -88.5269 206° Southwest 379 436 38,000 -300 Descending Memphis Center
11:45PM 32.7744 -88.6031 214° Southwest 393 452 38,000  Level Memphis Center
11:46PM 32.6836 -88.6789 215° Southwest 405 466 38,000  Level Memphis Center
11:47PM 32.5883 -88.7497 212° Southwest 410 472 38,000  Level Memphis Center
11:48PM 32.4975 -88.8278 216° Southwest 410 472 38,000  Level Memphis Center
11:49PM 32.4067 -88.9006 214° Southwest 410 472 38,000  Level Memphis Center
11:50PM 32.3156 -88.9733 214° Southwest 410 472 38,000  Level Memphis Center
11:51PM 32.2244 -89.0461 214° Southwest 400 460 38,000  Level Memphis Center
11:52PM 32.1356 -89.1183 215° Southwest 400 460 38,000 -600 Level Memphis Center
11:53PM 32.0442 -89.1908 214° Southwest 394 453 36,800 -1,788 Descending Memphis Center
11:55PM 31.9075 -89.2975 214° Southwest 394 453 33,500 -2,132 Descending Houston Center
11:56PM 31.8144 -89.3725 214° Southwest 403 464 31,400 -2,115 Descending Houston Center
11:57PM 31.7219 -89.4481 215° Southwest 406 467 29,200 -1,686 Descending Houston Center
11:58PM 31.6333 -89.5228 216° Southwest 398 458 28,000 -595 Descending Houston Center
11:59PM 31.5458 -89.5806 209° Southwest 397 457 28,000  Level Houston Center
12:00AM 31.4397 -89.6289 201° Southwest 407 468 28,000  Level Houston Center
12:01AM 31.3328 -89.6758 201° Southwest 410 472 28,000 -694 Level Houston Center
12:02AM 31.2244 -89.7231 200° South 413 475 26,600 -1,770 Descending Houston Center
12:03AM 31.1175 -89.7706 201° Southwest 411 473 24,400 -2,182 Descending Houston Center
12:04AM 31.0139 -89.8161 201° Southwest 401 461 22,200 -2,278 Descending Houston Center
12:05AM 30.9164 -89.8597 201° Southwest 376 433 20,300 -2,191 Descending Houston Center
12:06AM 30.8114 -89.9031 200° South 367 422 18,000 -2,203 Descending Houston Center
12:07AM 30.7250 -89.9456 203° Southwest 340 391 15,600 -2,139 Descending Houston Center
12:08AM 30.6578 -90.0039 217° Southwest 318 366 13,900 -1,541 Descending Houston Center
12:09AM 30.5947 -90.0575 216° Southwest 302 348 12,800 -1,233 Descending Houston Center
12:09AM 30.5764 -90.0739 218° Southwest 306 352 12,400 -1,377 Descending Houston Center
12:10AM 30.5297 -90.1158 218° Southwest 296 341 11,400 -1,279 Descending Houston Center
12:10AM 30.5125 -90.1294 214° Southwest 298 343 11,100 -1,200 Descending Houston Center
12:11AM 30.4667 -90.1714 218° Southwest 288 331 10,200 -1,200 Descending Houston Center
12:11AM 30.4508 -90.1842 215° Southwest 284 327 9,900 -1,180 Descending Houston Center
12:12AM 30.4017 -90.2272 217° Southwest 264 304 9,000 -1,180 Descending Houston Center
12:12AM 30.3931 -90.2356 220° Southwest 269 310 8,700 -1,182 Descending Houston Center
12:13AM 30.3406 -90.2803 216° Southwest 262 302 7,700 -1,211 Descending Houston Center
12:14AM 30.2747 -90.3214 208° Southwest 266 306 6,500 -1,279 Descending Houston Center
12:15AM 30.2064 -90.3433 196° South 254 292 5,100 -1,488 Descending Houston Center
12:16AM 30.1361 -90.3653 195° South 242 278 3,500 -1,140 Descending Houston Center
12:17AM 30.0781 -90.3844 196° South 207 238 2,800 -835 Descending Houston Center
12:18AM 30.0342 -90.3836 179° South 159 183 1,900 -833 Descending Houston Center
12:18AM 30.0322 -90.3803 124° Southeast 197 227 1,800 -787 Descending Houston Center
12:19AM 30.0122 -90.3486 126° Southeast 141 162 1,100 -800 Descending Houston Center
12:19AM 30.0117 -90.3433 97° East 163 188 1,000 -627 Descending Houston Center
12:20AM 30.0006 -90.3033 108° East 127 146 400 -720 Descending Houston Center